{"data":{"norad_id":53429,"epoch":"2026-05-25T04:57:47.511360Z","epoch_age_seconds":64030,"freshness":"FRESH","line1":"1 53429U 22097AT  26145.20679990 -.00000007  00000+0  17623-4 0  9993","line2":"2 53429  53.2138 120.7368 0001241  79.0833 281.0299 15.08840499210330","mean_motion":15.08840499,"eccentricity":0.0001241,"inclination_deg":53.2138,"raan_deg":120.7368,"arg_perigee_deg":79.0833,"mean_anomaly_deg":281.0299,"bstar":1.7623e-5,"rev_number":21033,"period_min":95.437523114894,"perigee_km":538.88335495416,"apogee_km":540.60037248814,"semimajor_km":6917.8788637212,"source":"CELESTRAK","updated_at":"2026-05-25T13:38:17.405359Z"}}